User: anonymous   Login
Location: Bothwell
(42.3833°S, 147.0000°E)
Time: 23:05:37
(UTC+10:00)
Language:

CAS-4A - Orbit

View from above orbital plane
View from above orbital plane
View from above satellite
View from above satellite

Ground track
Ground track

The orbit data is extracted from the following two-line orbital elements,

1 42761U 17034D   24205.95619987  .00026329  00000-0  89807-3 0  9999
2 42761  43.0211  16.8626 0012059 248.7879 111.1686 15.29793205393040
Epoch (UTC): 23 July 2024 22:56:55
Eccentricity: 0.0012059
inclination: 43.0211°
perigee height: 468 km
apogee height: 485 km
right ascension of ascending node: 16.8626°
argument of perigee: 248.7879°
revolutions per day: 15.29793205
mean anomaly at epoch: 111.1686°
orbit number at epoch: 39304

The dashed part of the orbit path shows where the satellite is in the earth's shadow,  

DLR